Location: Anaheim Mobile Home Estates
(33.8153°N, 117.9967°W)
Time: 00:07:48
(UTC+00:00)

BlueWalker 3 - Visible Passes

Search period start: 16 October 2024 00:00
Search period end: 26 October 2024 00:00
Orbit: 472 x 484 km, 53.2° (Epoch: 15 October)

Date Brightness Start Highest point End Pass type
(mag) Time Alt. Az. Time Alt. Az. Time Alt. Az.
18 Oct 4.5 13:19:09 10° N 13:20:53 13° NNE 13:22:37 10° ENE visible
19 Oct 4.6 12:50:51 10° N 12:52:13 12° NNE 12:53:33 10° NE visible
20 Oct 4.7 12:22:45 10° NNE 12:23:30 10° NNE 12:24:15 10° NE visible
21 Oct 2.4 13:29:43 10° NW 13:33:22 58° NE 13:36:59 10° SE visible
22 Oct 2.6 13:01:14 11° NNW 13:04:40 49° NE 13:08:14 10° ESE visible
23 Oct 2.9 12:34:12 24° NNW 12:35:56 42° NE 12:39:26 10° ESE visible
24 Oct 3.1 12:07:15 36° NE 12:07:15 36° NE 12:10:35 10° ESE visible
25 Oct 4.5 11:40:23 19° E 11:40:23 19° E 11:41:41 10° ESE visible
25 Oct 3.2 13:14:35 17° W 13:16:09 22° SW 13:19:01 10° S visible
